Time,TemperatureF,DewpointF,PressureIn,WindDirection,WindDirectionDegrees,WindSpeedMPH,WindSpeedGustMPH,Humidity,HourlyPrecipIn,Conditions,Clouds,dailyrainin,SoftwareType,DateUTC
2013-02-18 00:00:00,64.3,60.0,29.99,SE,139,12.7,12.7,86,0.00,CLR,,0.00,WeatherDisplay:10.37,2013-02-18 06:00:00,
2013-02-18 00:05:00,64.3,60.0,29.99,SSE,153,11.5,11.5,86,0.00,CLR,,0.00,WeatherDisplay:10.37,2013-02-18 06:05:00,
2013-02-18 00:10:00,64.4,60.1,30.00,SSE,150,6.9,6.9,86,0.00,CLR,,0.00,WeatherDisplay:10.37,2013-02-18 06:10:00,
2013-02-18 00:15:00,64.4,60.4,30.00,SSE,154,13.8,13.8,87,0.00,CLR,,0.00,WeatherDisplay:10.37,2013-02-18 06:15:00,
2013-02-18 00:20:00,64.4,60.4,29.99,SE,140,12.7,12.7,87,0.00,CLR,,0.00,WeatherDisplay:10.37,2013-02-18 06:20:00,
2013-02-18 00:25:00,64.5,60.5,29.99,SSE,158,12.7,12.7,87,0.00,CLR,,0.00,WeatherDisplay:10.37,2013-02-18 06:25:00,
2013-02-18 00:30:00,64.5,60.5,29.98,SE,134,13.8,13.8,87,0.00,CLR,,0.00,WeatherDisplay:10.37,2013-02-18 06:30:00,
2013-02-18 00:35:00,64.5,60.2,29.98,SE,146,10.4,10.4,86,0.00,CLR,,0.00,WeatherDisplay:10.37,2013-02-18 06:35:00,
2013-02-18 00:40:00,64.6,60.3,29.98,SSE,162,15.0,15.0,86,0.00,CLR,,0.00,WeatherDisplay:10.37,2013-02-18 06:40:00,
2013-02-18 00:45:00,64.6,60.3,29.98,SSE,148,13.8,13.8,86,0.00,CLR,,0.00,WeatherDisplay:10.37,2013-02-18 06:45:00,
2013-02-18 00:50:00,64.6,60.3,29.98,SSE,156,6.9,6.9,86,0.00,CLR,,0.00,WeatherDisplay:10.37,2013-02-18 06:50:00,
2013-02-18 00:55:00,64.6,60.6,29.98,South,172,17.3,17.3,87,0.00,CLR,,0.00,WeatherDisplay:10.37,2013-02-18 06:55:00,
2013-02-18 01:00:00,64.6,60.6,29.98,South,174,11.5,11.5,87,0.00,CLR,,0.00,WeatherDisplay:10.37,2013-02-18 07:00:00,
2013-02-18 01:05:00,64.6,60.6,29.98,South,189,10.4,10.4,87,0.00,CLR,,0.00,WeatherDisplay:10.37,2013-02-18 07:05:00,
2013-02-18 01:10:00,64.7,60.7,29.98,SSW,203,8.1,8.1,87,0.00,CLR,,0.00,WeatherDisplay:10.37,2013-02-18 07:10:00,
2013-02-18 01:15:00,64.7,60.7,29.98,South,169,10.4,10.4,87,0.00,CLR,,0.00,WeatherDisplay:10.37,2013-02-18 07:15:00,
2013-02-18 01:20:00,64.7,60.7,29.98,South,172,10.4,10.4,87,0.00,CLR,,0.00,WeatherDisplay:10.37,2013-02-18 07:20:00,
2013-02-18 01:25:00,64.7,60.7,29.97,SE,143,11.5,11.5,87,0.00,CLR,,0.00,WeatherDisplay:10.37,2013-02-18 07:25:00,
2013-02-18 01:30:00,64.7,60.7,29.97,SE,126,13.8,13.8,87,0.00,CLR,,0.00,WeatherDisplay:10.37,2013-02-18 07:30:00,
2013-02-18 01:35:00,64.8,60.8,29.97,SE,139,15.0,15.0,87,0.00,CLR,,0.00,WeatherDisplay:10.37,2013-02-18 07:35:00,
2013-02-18 01:40:00,64.8,60.8,29.97,SSE,150,9.2,9.2,87,0.00,CLR,,0.00,WeatherDisplay:10.37,2013-02-18 07:40:00,
2013-02-18 01:45:00,64.8,60.8,29.97,SSE,148,5.8,5.8,87,0.00,CLR,,0.00,WeatherDisplay:10.37,2013-02-18 07:45:00,
2013-02-18 01:50:00,64.8,61.2,29.97,SSE,162,12.7,12.7,88,0.00,CLR,,0.00,WeatherDisplay:10.37,2013-02-18 07:50:00,
2013-02-18 01:55:00,64.9,60.9,29.96,SE,142,9.2,9.2,87,0.00,CLR,,0.00,WeatherDisplay:10.37,2013-02-18 07:55:00,
2013-02-18 02:00:00,64.9,61.3,29.96,SSE,166,8.1,8.1,88,0.00,CLR,,0.00,WeatherDisplay:10.37,2013-02-18 08:00:00,
2013-02-18 02:05:00,64.9,61.3,29.96,SE,132,15.0,15.0,88,0.00,CLR,,0.00,WeatherDisplay:10.37,2013-02-18 08:05:00,
2013-02-18 02:10:00,64.9,61.3,29.96,SE,141,10.4,10.4,88,0.00,CLR,,0.00,WeatherDisplay:10.37,2013-02-18 08:10:00,
2013-02-18 02:15:00,64.9,61.3,29.95,SSE,150,12.7,12.7,88,0.00,CLR,,0.00,WeatherDisplay:10.37,2013-02-18 08:15:00,
2013-02-18 02:20:00,65.0,61.4,29.96,SSE,158,11.6,11.6,88,0.00,CLR,,0.00,WeatherDisplay:10.37,2013-02-18 08:20:00,
2013-02-18 02:25:00,65.0,61.4,29.95,SE,146,11.6,11.6,88,0.00,CLR,,0.00,WeatherDisplay:10.37,2013-02-18 08:25:00,
2013-02-18 02:30:00,65.0,61.4,29.95,SE,139,12.7,12.7,88,0.00,CLR,,0.00,WeatherDisplay:10.37,2013-02-18 08:30:00,
2013-02-18 02:35:00,65.0,61.4,29.95,SE,143,16.1,16.1,88,0.00,CLR,,0.00,WeatherDisplay:10.37,2013-02-18 08:35:00,
2013-02-18 02:40:00,65.0,61.4,29.94,South,175,11.5,11.5,88,0.00,CLR,,0.00,WeatherDisplay:10.37,2013-02-18 08:40:00,
2013-02-18 02:45:00,65.0,61.4,29.94,SE,146,12.7,12.7,88,0.00,CLR,,0.00,WeatherDisplay:10.37,2013-02-18 08:45:00,
2013-02-18 02:50:00,65.0,61.4,29.94,SE,135,9.2,9.2,88,0.00,CLR,,0.00,WeatherDisplay:10.37,2013-02-18 08:50:00,
2013-02-18 02:55:00,65.0,61.7,29.94,SSE,150,12.7,12.7,89,0.00,CLR,,0.00,WeatherDisplay:10.37,2013-02-18 08:55:00,
2013-02-18 03:00:00,65.0,61.7,29.94,SSE,160,10.4,10.4,89,0.00,CLR,,0.00,WeatherDisplay:10.37,2013-02-18 09:00:00,
2013-02-18 03:05:00,65.0,61.7,29.94,SSE,153,6.9,6.9,89,0.00,CLR,,0.00,WeatherDisplay:10.37,2013-02-18 09:05:00,
2013-02-18 03:10:00,64.9,61.6,29.93,SSE,159,10.4,10.4,89,0.00,CLR,,0.00,WeatherDisplay:10.37,2013-02-18 09:10:00,
2013-02-18 03:15:00,64.9,61.6,29.93,ESE,108,10.5,10.5,89,0.00,CLR,,0.00,WeatherDisplay:10.37,2013-02-18 09:15:00,
2013-02-18 03:20:00,64.9,61.9,29.93,SSE,163,12.7,12.7,90,0.00,CLR,,0.00,WeatherDisplay:10.37,2013-02-18 09:20:00,
2013-02-18 03:25:00,65.0,61.7,29.92,SE,145,12.7,12.7,89,0.00,CLR,,0.00,WeatherDisplay:10.37,2013-02-18 09:25:00,
2013-02-18 03:30:00,64.9,61.9,29.92,SE,137,12.7,12.7,90,0.00,CLR,,0.00,WeatherDisplay:10.37,2013-02-18 09:30:00,
2013-02-18 03:35:00,64.9,61.9,29.92,SSE,163,9.2,9.2,90,0.00,CLR,,0.00,WeatherDisplay:10.37,2013-02-18 09:35:00,
2013-02-18 03:40:00,64.9,61.9,29.92,ESE,122,9.2,9.2,90,0.00,CLR,,0.00,WeatherDisplay:10.37,2013-02-18 09:40:00,
2013-02-18 03:45:00,64.9,61.9,29.92,South,176,10.4,10.4,90,0.00,CLR,,0.00,WeatherDisplay:10.37,2013-02-18 09:45:00,
2013-02-18 03:50:00,64.9,61.9,29.92,SSE,158,10.4,10.4,90,0.00,CLR,,0.00,WeatherDisplay:10.37,2013-02-18 09:50:00,
2013-02-18 03:55:00,65.0,62.0,29.92,SSE,165,13.8,13.8,90,0.00,CLR,,0.00,WeatherDisplay:10.37,2013-02-18 09:55:00,
2013-02-18 04:00:00,65.0,62.0,29.91,SSE,160,9.2,9.2,90,0.00,CLR,,0.00,WeatherDisplay:10.37,2013-02-18 10:00:00,
2013-02-18 04:05:00,65.0,62.3,29.91,SE,140,11.5,11.5,91,0.00,CLR,,0.00,WeatherDisplay:10.37,2013-02-18 10:05:00,
2013-02-18 04:10:00,65.0,62.3,29.91,SE,125,16.1,16.1,91,0.00,CLR,,0.00,WeatherDisplay:10.37,2013-02-18 10:10:00,
2013-02-18 04:15:00,65.0,62.3,29.91,SE,145,12.7,12.7,91,0.00,CLR,,0.00,WeatherDisplay:10.37,2013-02-18 10:15:00,
2013-02-18 04:20:00,65.1,62.4,29.91,South,171,10.4,10.4,91,0.00,CLR,,0.00,WeatherDisplay:10.37,2013-02-18 10:20:00,
2013-02-18 04:25:00,65.1,62.4,29.91,SSE,148,11.5,11.5,91,0.00,CLR,,0.00,WeatherDisplay:10.37,2013-02-18 10:25:00,
2013-02-18 04:30:00,65.1,62.4,29.90,SSE,153,13.8,13.8,91,0.00,CLR,,0.00,WeatherDisplay:10.37,2013-02-18 10:30:00,
2013-02-18 04:35:00,65.1,62.4,29.90,SE,143,11.5,11.5,91,0.00,CLR,,0.00,WeatherDisplay:10.37,2013-02-18 10:35:00,
2013-02-18 04:40:00,65.1,62.4,29.90,SE,134,17.3,17.3,91,0.00,CLR,,0.00,WeatherDisplay:10.37,2013-02-18 10:40:00,
2013-02-18 04:45:00,65.1,62.4,29.89,SE,127,13.8,13.8,91,0.00,CLR,,0.00,WeatherDisplay:10.37,2013-02-18 10:45:00,
2013-02-18 04:50:00,65.2,62.5,29.90,SE,146,10.4,10.4,91,0.00,CLR,,0.00,WeatherDisplay:10.37,2013-02-18 10:50:00,
2013-02-18 04:55:00,65.1,62.4,29.89,SSE,153,13.8,13.8,91,0.00,CLR,,0.00,WeatherDisplay:10.37,2013-02-18 10:55:00,
2013-02-18 05:00:00,65.1,62.7,29.89,SE,135,12.7,12.7,92,0.00,CLR,,0.00,WeatherDisplay:10.37,2013-02-18 11:00:00,
2013-02-18 05:05:00,65.1,62.7,29.89,SSE,158,13.8,13.8,92,0.00,CLR,,0.00,WeatherDisplay:10.37,2013-02-18 11:05:00,
2013-02-18 05:10:00,65.1,62.7,29.89,South,180,15.0,15.0,92,0.00,CLR,,0.00,WeatherDisplay:10.37,2013-02-18 11:10:00,
2013-02-18 05:15:00,65.2,62.8,29.89,South,174,11.5,11.5,92,0.00,CLR,,0.00,WeatherDisplay:10.37,2013-02-18 11:15:00,
2013-02-18 05:20:00,65.3,62.9,29.90,SSE,148,11.5,11.5,92,0.00,CLR,,0.00,WeatherDisplay:10.37,2013-02-18 11:20:00,
2013-02-18 05:25:00,65.3,62.6,29.90,SSE,151,10.4,10.4,91,0.00,CLR,,0.00,WeatherDisplay:10.37,2013-02-18 11:25:00,
2013-02-18 05:30:00,65.4,62.7,29.90,SE,136,12.7,12.7,91,0.00,CLR,,0.00,WeatherDisplay:10.37,2013-02-18 11:30:00,
2013-02-18 05:35:00,65.5,62.8,29.90,SE,131,14.7,14.7,91,0.00,CLR,,0.00,WeatherDisplay:10.37,2013-02-18 11:35:00,
2013-02-18 05:40:00,65.5,62.8,29.90,SE,139,13.8,13.8,91,0.00,CLR,,0.00,WeatherDisplay:10.37,2013-02-18 11:40:00,
2013-02-18 05:45:00,65.6,62.9,29.90,ESE,121,16.1,16.1,91,0.00,CLR,,0.00,WeatherDisplay:10.37,2013-02-18 11:45:00,
2013-02-18 05:50:00,65.5,62.8,29.90,SE,131,16.8,16.8,91,0.00,CLR,,0.00,WeatherDisplay:10.37,2013-02-18 11:50:00,
2013-02-18 05:55:00,65.6,62.9,29.89,SE,127,5.8,7.4,91,0.00,CLR,,0.00,WeatherDisplay:10.37,2013-02-18 11:55:00,
2013-02-18 06:00:00,65.6,62.9,29.89,SSE,167,11.5,11.5,91,0.00,CLR,,0.00,WeatherDisplay:10.37,2013-02-18 12:00:00,
2013-02-18 06:05:00,65.6,62.9,29.90,SSE,162,13.8,13.8,91,0.00,CLR,,0.00,WeatherDisplay:10.37,2013-02-18 12:05:00,
2013-02-18 06:10:00,65.7,63.0,29.90,SSE,148,10.4,10.4,91,0.00,CLR,,0.00,WeatherDisplay:10.37,2013-02-18 12:10:00,
2013-02-18 06:15:00,65.7,63.0,29.90,SSE,152,12.7,12.7,91,0.00,CLR,,0.00,WeatherDisplay:10.37,2013-02-18 12:15:00,
2013-02-18 06:20:00,65.7,63.0,29.90,SE,141,12.7,12.7,91,0.00,CLR,,0.00,WeatherDisplay:10.37,2013-02-18 12:20:00,
2013-02-18 06:25:00,65.7,63.3,29.90,SE,126,11.5,11.5,92,0.00,CLR,,0.00,WeatherDisplay:10.37,2013-02-18 12:25:00,
2013-02-18 06:30:00,65.7,63.3,29.90,SSE,162,12.7,12.7,92,0.00,CLR,,0.00,WeatherDisplay:10.37,2013-02-18 12:30:00,
2013-02-18 06:35:00,65.6,63.2,29.90,SE,134,15.0,15.0,92,0.00,CLR,,0.00,WeatherDisplay:10.37,2013-02-18 12:35:00,
2013-02-18 06:40:00,65.7,63.3,29.89,SE,128,10.4,10.4,92,0.00,CLR,,0.00,WeatherDisplay:10.37,2013-02-18 12:40:00,
2013-02-18 06:46:00,65.7,63.3,29.90,SE,144,15.0,15.0,92,0.00,CLR,,0.00,WeatherDisplay:10.37,2013-02-18 12:46:00,
2013-02-18 06:51:00,65.7,63.3,29.90,SE,139,15.0,15.0,92,0.00,CLR,,0.00,WeatherDisplay:10.37,2013-02-18 12:51:00,
2013-02-18 06:56:00,65.7,63.3,29.90,SSE,150,12.7,12.7,92,0.00,CLR,,0.00,WeatherDisplay:10.37,2013-02-18 12:56:00,
2013-02-18 07:01:00,65.7,63.3,29.90,SSE,153,12.7,12.7,92,0.00,CLR,,0.00,WeatherDisplay:10.37,2013-02-18 13:01:00,
2013-02-18 07:06:00,65.7,63.3,29.90,SE,136,8.1,8.1,92,0.00,CLR,,0.00,WeatherDisplay:10.37,2013-02-18 13:06:00,
2013-02-18 07:11:00,65.7,63.3,29.90,SE,134,6.9,6.9,92,0.00,CLR,,0.00,WeatherDisplay:10.37,2013-02-18 13:11:00,
2013-02-18 07:16:00,65.7,63.6,29.91,SSE,150,9.2,9.2,93,0.00,CLR,,0.00,WeatherDisplay:10.37,2013-02-18 13:16:00,
2013-02-18 07:21:00,65.7,63.6,29.90,SE,124,10.4,10.4,93,0.00,CLR,,0.00,WeatherDisplay:10.37,2013-02-18 13:21:00,
2013-02-18 07:26:00,65.7,63.6,29.90,SSE,149,11.5,11.5,93,0.00,CLR,,0.00,WeatherDisplay:10.37,2013-02-18 13:26:00,
2013-02-18 07:31:00,65.7,63.6,29.90,SSE,159,10.4,10.4,93,0.00,CLR,,0.00,WeatherDisplay:10.37,2013-02-18 13:31:00,
2013-02-18 07:37:00,65.7,63.6,29.91,South,172,11.5,11.5,93,0.00,CLR,,0.00,WeatherDisplay:10.37,2013-02-18 13:37:00,
2013-02-18 07:42:00,65.8,63.7,29.91,SE,143,11.5,11.5,93,0.00,CLR,,0.00,WeatherDisplay:10.37,2013-02-18 13:42:00,
2013-02-18 07:47:00,65.8,63.7,29.91,SE,145,10.4,10.4,93,0.00,CLR,,0.00,WeatherDisplay:10.37,2013-02-18 13:47:00,
2013-02-18 07:52:00,65.8,63.7,29.91,SE,126,10.4,10.4,93,0.00,CLR,,0.00,WeatherDisplay:10.37,2013-02-18 13:52:00,
2013-02-18 07:57:00,65.9,63.8,29.91,SSE,148,9.4,9.4,93,0.00,CLR,,0.00,WeatherDisplay:10.37,2013-02-18 13:57:00,
2013-02-18 08:02:00,66.0,63.9,29.91,SE,136,13.8,13.8,93,0.00,CLR,,0.00,WeatherDisplay:10.37,2013-02-18 14:02:00,
2013-02-18 08:07:00,66.1,64.0,29.91,SSE,162,12.7,12.7,93,0.00,CLR,,0.00,WeatherDisplay:10.37,2013-02-18 14:07:00,
2013-02-18 08:12:00,66.1,64.0,29.91,SE,134,10.4,10.4,93,0.00,CLR,,0.00,WeatherDisplay:10.37,2013-02-18 14:12:00,
2013-02-18 08:17:00,66.2,64.1,29.91,SSE,151,13.8,13.8,93,0.00,CLR,,0.00,WeatherDisplay:10.37,2013-02-18 14:17:00,
2013-02-18 08:23:00,66.2,63.8,29.91,SSE,165,6.9,6.9,92,0.00,CLR,,0.00,WeatherDisplay:10.37,2013-02-18 14:23:00,
2013-02-18 08:28:00,66.2,63.8,29.91,SSE,148,10.4,10.4,92,0.00,CLR,,0.00,WeatherDisplay:10.37,2013-02-18 14:28:00,
2013-02-18 08:33:00,66.3,64.2,29.91,South,182,12.7,12.7,93,0.00,CLR,,0.00,WeatherDisplay:10.37,2013-02-18 14:33:00,
2013-02-18 08:38:00,66.4,64.0,29.91,SSE,148,9.2,9.2,92,0.00,CLR,,0.00,WeatherDisplay:10.37,2013-02-18 14:38:00,
2013-02-18 08:43:00,66.6,64.2,29.91,SE,141,9.2,9.2,92,0.00,CLR,,0.00,WeatherDisplay:10.37,2013-02-18 14:43:00,
2013-02-18 08:48:00,66.8,64.4,29.91,ESE,119,12.7,12.7,92,0.00,CLR,,0.00,WeatherDisplay:10.37,2013-02-18 14:48:00,
2013-02-18 08:54:00,66.9,64.2,29.91,SSE,165,16.1,16.1,91,0.00,CLR,,0.00,WeatherDisplay:10.37,2013-02-18 14:54:00,
2013-02-18 08:59:00,67.0,64.3,29.91,SE,129,12.6,12.6,91,0.00,CLR,,0.00,WeatherDisplay:10.37,2013-02-18 14:59:00,
2013-02-18 09:05:00,67.1,64.4,29.91,SSE,158,11.6,11.6,91,0.00,CLR,,0.00,WeatherDisplay:10.37,2013-02-18 15:05:00,
2013-02-18 09:10:00,67.1,64.4,29.91,SSE,149,15.0,15.0,91,0.00,CLR,,0.00,WeatherDisplay:10.37,2013-02-18 15:10:00,
2013-02-18 09:15:00,67.3,64.6,29.92,SSE,167,10.4,10.4,91,0.00,CLR,,0.00,WeatherDisplay:10.37,2013-02-18 15:15:00,
2013-02-18 09:20:00,67.5,64.5,29.92,SE,129,16.1,16.1,90,0.00,CLR,,0.00,WeatherDisplay:10.37,2013-02-18 15:20:00,
2013-02-18 09:25:00,67.6,64.6,29.92,SSE,150,11.5,11.5,90,0.00,CLR,,0.00,WeatherDisplay:10.37,2013-02-18 15:25:00,
2013-02-18 09:30:00,67.8,64.8,29.92,SSE,162,17.3,17.3,90,0.00,CLR,,0.00,WeatherDisplay:10.37,2013-02-18 15:30:00,
2013-02-18 09:35:00,67.9,64.9,29.92,SSE,161,13.8,13.8,90,0.00,CLR,,0.00,WeatherDisplay:10.37,2013-02-18 15:35:00,
2013-02-18 09:40:00,68.0,65.0,29.92,SSE,150,15.0,15.0,90,0.00,CLR,,0.00,WeatherDisplay:10.37,2013-02-18 15:40:00,
2013-02-18 09:45:00,68.0,65.0,29.92,South,179,11.5,11.5,90,0.00,CLR,,0.00,WeatherDisplay:10.37,2013-02-18 15:45:00,
2013-02-18 09:50:00,67.8,64.8,29.92,South,169,17.3,17.3,90,0.00,CLR,,0.00,WeatherDisplay:10.37,2013-02-18 15:50:00,
2013-02-18 09:55:00,67.7,65.0,29.92,South,174,17.3,17.3,91,0.00,CLR,,0.00,WeatherDisplay:10.37,2013-02-18 15:55:00,
2013-02-18 10:00:00,67.9,65.2,29.92,South,173,17.3,17.3,91,0.00,CLR,,0.00,WeatherDisplay:10.37,2013-02-18 16:00:00,
2013-02-18 10:05:00,68.0,65.0,29.92,South,172,12.7,12.7,90,0.00,CLR,,0.00,WeatherDisplay:10.37,2013-02-18 16:05:00,
2013-02-18 10:11:00,68.2,65.2,29.92,South,176,9.2,9.2,90,0.00,CLR,,0.00,WeatherDisplay:10.37,2013-02-18 16:11:00,
2013-02-18 10:16:00,68.3,65.3,29.92,SE,143,15.0,15.0,90,0.00,CLR,,0.00,WeatherDisplay:10.37,2013-02-18 16:16:00,
2013-02-18 10:21:00,68.4,65.4,29.92,SSE,167,15.0,15.0,90,0.00,CLR,,0.00,WeatherDisplay:10.37,2013-02-18 16:21:00,
2013-02-18 10:26:00,68.4,65.4,29.92,SSE,164,11.5,11.5,90,0.00,CLR,,0.00,WeatherDisplay:10.37,2013-02-18 16:26:00,
2013-02-18 10:31:00,68.5,65.4,29.92,SE,144,12.7,12.7,90,0.00,CLR,,0.00,WeatherDisplay:10.37,2013-02-18 16:31:00,
2013-02-18 10:37:00,68.6,65.2,29.92,SE,134,17.3,17.3,89,0.00,CLR,,0.00,WeatherDisplay:10.37,2013-02-18 16:37:00,
2013-02-18 10:42:00,68.6,65.2,29.93,SSE,168,16.8,16.8,89,0.00,CLR,,0.00,WeatherDisplay:10.37,2013-02-18 16:42:00,
2013-02-18 10:47:00,68.7,65.3,29.92,South,175,12.7,12.7,89,0.00,CLR,,0.00,WeatherDisplay:10.37,2013-02-18 16:47:00,
2013-02-18 10:52:00,68.8,65.1,29.93,South,169,21.9,21.9,88,0.00,CLR,,0.00,WeatherDisplay:10.37,2013-02-18 16:52:00,
2013-02-18 10:57:00,68.9,65.5,29.92,South,184,15.8,15.8,89,0.00,CLR,,0.00,WeatherDisplay:10.37,2013-02-18 16:57:00,
2013-02-18 11:02:00,68.7,65.0,29.92,South,172,15.0,15.0,88,0.00,CLR,,0.00,WeatherDisplay:10.37,2013-02-18 17:02:00,
2013-02-18 11:08:00,68.5,65.1,29.92,SSW,194,11.5,11.5,89,0.00,CLR,,0.00,WeatherDisplay:10.37,2013-02-18 17:08:00,
2013-02-18 11:13:00,68.8,65.4,29.92,SE,146,15.0,15.0,89,0.00,CLR,,0.00,WeatherDisplay:10.37,2013-02-18 17:13:00,
2013-02-18 11:18:00,69.0,65.3,29.92,South,186,21.9,21.9,88,0.00,CLR,,0.00,WeatherDisplay:10.37,2013-02-18 17:18:00,
2013-02-18 11:23:00,69.2,65.5,29.92,South,171,12.7,12.7,88,0.00,CLR,,0.00,WeatherDisplay:10.37,2013-02-18 17:23:00,
2013-02-18 11:28:00,69.3,65.6,29.92,South,186,19.6,19.6,88,0.00,CLR,,0.00,WeatherDisplay:10.37,2013-02-18 17:28:00,
2013-02-18 11:33:00,69.1,65.4,29.92,South,169,10.4,10.4,88,0.00,CLR,,0.00,WeatherDisplay:10.37,2013-02-18 17:33:00,
2013-02-18 11:38:00,68.9,65.2,29.92,South,178,18.4,18.4,88,0.00,CLR,,0.00,WeatherDisplay:10.37,2013-02-18 17:38:00,
2013-02-18 11:43:00,68.7,65.0,29.93,South,184,19.6,19.6,88,0.00,CLR,,0.00,WeatherDisplay:10.37,2013-02-18 17:43:00,
2013-02-18 11:48:00,68.5,65.1,29.93,SSE,168,12.7,12.7,89,0.00,CLR,,0.00,WeatherDisplay:10.37,2013-02-18 17:48:00,
2013-02-18 11:53:00,68.4,65.0,29.93,South,183,13.8,13.8,89,0.00,CLR,,0.00,WeatherDisplay:10.37,2013-02-18 17:53:00,
2013-02-18 11:58:00,68.2,64.8,29.93,South,180,12.7,12.7,89,0.00,CLR,,0.00,WeatherDisplay:10.37,2013-02-18 17:58:00,
2013-02-18 12:03:00,68.1,65.1,29.93,South,173,15.0,15.0,90,0.00,CLR,,0.00,WeatherDisplay:10.37,2013-02-18 18:03:00,
2013-02-18 12:08:00,68.2,65.2,29.93,South,181,12.7,12.7,90,0.00,CLR,,0.00,WeatherDisplay:10.37,2013-02-18 18:08:00,
2013-02-18 12:13:00,68.4,65.4,29.93,South,185,11.5,11.5,90,0.00,CLR,,0.00,WeatherDisplay:10.37,2013-02-18 18:13:00,
2013-02-18 12:18:00,68.5,65.1,29.93,South,178,16.1,16.1,89,0.00,CLR,,0.00,WeatherDisplay:10.37,2013-02-18 18:18:00,
2013-02-18 12:23:00,68.4,65.4,29.92,SE,145,13.8,13.8,90,0.00,CLR,,0.00,WeatherDisplay:10.37,2013-02-18 18:23:00,
2013-02-18 12:28:00,68.9,65.5,29.92,South,172,17.3,17.3,89,0.00,CLR,,0.00,WeatherDisplay:10.37,2013-02-18 18:28:00,
2013-02-18 12:33:00,68.9,65.5,29.92,SSW,207,11.6,11.6,89,0.00,CLR,,0.00,WeatherDisplay:10.37,2013-02-18 18:33:00,
2013-02-18 12:38:00,68.9,65.5,29.91,SSW,205,15.0,15.0,89,0.00,CLR,,0.00,WeatherDisplay:10.37,2013-02-18 18:38:00,
2013-02-18 12:43:00,69.3,65.9,29.91,SSE,149,11.5,11.5,89,0.00,CLR,,0.00,WeatherDisplay:10.37,2013-02-18 18:43:00,
2013-02-18 12:48:00,69.7,66.0,29.91,SSW,196,14.7,14.7,88,0.00,CLR,,0.00,WeatherDisplay:10.37,2013-02-18 18:48:00,
2013-02-18 12:54:00,70.2,66.5,29.91,South,181,16.1,16.1,88,0.00,CLR,,0.00,WeatherDisplay:10.37,2013-02-18 18:54:00,
2013-02-18 12:59:00,70.6,66.5,29.91,SSW,198,18.4,18.4,87,0.00,CLR,,0.00,WeatherDisplay:10.37,2013-02-18 18:59:00,
2013-02-18 13:04:00,70.6,66.2,29.91,SSE,164,17.3,17.3,86,0.00,CLR,,0.00,WeatherDisplay:10.37,2013-02-18 19:04:00,
2013-02-18 13:09:00,70.5,66.1,29.91,South,169,17.3,17.3,86,0.00,CLR,,0.00,WeatherDisplay:10.37,2013-02-18 19:09:00,
2013-02-18 13:14:00,70.2,65.8,29.91,South,173,16.1,16.1,86,0.00,CLR,,0.00,WeatherDisplay:10.37,2013-02-18 19:14:00,
2013-02-18 13:19:00,69.9,65.9,29.91,SSW,206,17.3,17.3,87,0.00,CLR,,0.00,WeatherDisplay:10.37,2013-02-18 19:19:00,
2013-02-18 13:24:00,69.7,66.0,29.91,SSE,148,17.3,17.3,88,0.00,CLR,,0.00,WeatherDisplay:10.37,2013-02-18 19:24:00,
2013-02-18 13:29:00,70.0,66.3,29.91,South,175,15.0,15.0,88,0.00,CLR,,0.00,WeatherDisplay:10.37,2013-02-18 19:29:00,
2013-02-18 13:34:00,70.7,66.6,29.90,SE,137,18.4,18.4,87,0.00,CLR,,0.00,WeatherDisplay:10.37,2013-02-18 19:34:00,
2013-02-18 13:39:00,71.2,66.8,29.88,SSE,148,15.0,15.0,86,0.00,CLR,,0.00,WeatherDisplay:10.37,2013-02-18 19:39:00,
2013-02-18 13:44:00,71.8,67.0,29.88,SSE,158,16.1,16.1,85,0.00,CLR,,0.00,WeatherDisplay:10.37,2013-02-18 19:44:00,
2013-02-18 13:49:00,72.0,67.2,29.88,SSE,160,15.0,15.0,85,0.00,CLR,,0.00,WeatherDisplay:10.37,2013-02-18 19:49:00,
2013-02-18 13:54:00,72.3,66.8,29.88,SSE,155,19.6,19.6,83,0.00,CLR,,0.00,WeatherDisplay:10.37,2013-02-18 19:54:00,
2013-02-18 13:59:00,72.3,66.8,29.86,SSE,168,17.3,17.3,83,0.00,CLR,,0.00,WeatherDisplay:10.37,2013-02-18 19:59:00,
2013-02-18 14:04:00,72.5,67.0,29.86,SE,143,13.8,13.8,83,0.00,CLR,,0.00,WeatherDisplay:10.37,2013-02-18 20:04:00,
2013-02-18 14:09:00,72.6,67.1,29.86,SE,136,18.4,18.4,83,0.00,CLR,,0.00,WeatherDisplay:10.37,2013-02-18 20:09:00,
2013-02-18 14:14:00,72.7,66.9,29.86,SSE,148,18.4,18.4,82,0.00,CLR,,0.00,WeatherDisplay:10.37,2013-02-18 20:14:00,
2013-02-18 14:19:00,72.6,66.8,29.87,SE,135,12.7,12.7,82,0.00,CLR,,0.00,WeatherDisplay:10.37,2013-02-18 20:19:00,
2013-02-18 14:24:00,72.3,66.5,29.87,ESE,117,15.0,15.0,82,0.00,CLR,,0.00,WeatherDisplay:10.37,2013-02-18 20:24:00,
2013-02-18 14:29:00,72.5,66.7,29.86,SSE,159,18.4,18.4,82,0.00,CLR,,0.00,WeatherDisplay:10.37,2013-02-18 20:29:00,
2013-02-18 14:34:00,72.2,66.7,29.86,South,188,17.3,17.3,83,0.00,CLR,,0.00,WeatherDisplay:10.37,2013-02-18 20:34:00,
2013-02-18 14:39:00,72.8,67.0,29.86,South,169,21.0,21.0,82,0.00,CLR,,0.00,WeatherDisplay:10.37,2013-02-18 20:39:00,
2013-02-18 14:45:00,72.6,66.8,29.86,SSE,161,17.3,17.3,82,0.00,CLR,,0.00,WeatherDisplay:10.37,2013-02-18 20:45:00,
2013-02-18 14:50:00,72.7,66.9,29.86,South,186,14.7,14.7,82,0.00,CLR,,0.00,WeatherDisplay:10.37,2013-02-18 20:50:00,
2013-02-18 14:55:00,72.9,66.7,29.86,South,185,19.6,19.6,81,0.00,CLR,,0.00,WeatherDisplay:10.37,2013-02-18 20:55:00,
2013-02-18 15:00:00,73.1,66.9,29.85,South,188,13.8,13.8,81,0.00,CLR,,0.00,WeatherDisplay:10.37,2013-02-18 21:00:00,
2013-02-18 15:05:00,73.1,66.9,29.85,SSW,211,18.4,18.4,81,0.00,CLR,,0.00,WeatherDisplay:10.37,2013-02-18 21:05:00,
2013-02-18 15:10:00,73.0,66.5,29.85,SSW,198,20.7,20.7,80,0.00,CLR,,0.00,WeatherDisplay:10.37,2013-02-18 21:10:00,
2013-02-18 15:15:00,72.9,66.7,29.85,SSE,153,24.2,24.2,81,0.00,CLR,,0.00,WeatherDisplay:10.37,2013-02-18 21:15:00,
2013-02-18 15:20:00,72.5,66.0,29.85,South,184,21.9,21.9,80,0.00,CLR,,0.00,WeatherDisplay:10.37,2013-02-18 21:20:00,
2013-02-18 15:25:00,72.3,66.1,29.85,South,181,27.6,27.6,81,0.00,CLR,,0.00,WeatherDisplay:10.37,2013-02-18 21:25:00,
2013-02-18 15:30:00,72.5,66.3,29.84,SSE,160,20.7,20.7,81,0.00,CLR,,0.00,WeatherDisplay:10.37,2013-02-18 21:30:00,
2013-02-18 15:35:00,72.4,65.5,29.84,SE,129,20.7,20.7,79,0.00,CLR,,0.00,WeatherDisplay:10.37,2013-02-18 21:35:00,
2013-02-18 15:40:00,72.3,65.8,29.84,South,180,18.4,18.4,80,0.00,CLR,,0.00,WeatherDisplay:10.37,2013-02-18 21:40:00,
2013-02-18 15:45:00,72.3,65.8,29.84,SE,141,18.4,18.4,80,0.00,CLR,,0.00,WeatherDisplay:10.37,2013-02-18 21:45:00,
2013-02-18 15:50:00,72.1,65.6,29.84,SE,132,23.0,23.0,80,0.00,CLR,,0.00,WeatherDisplay:10.37,2013-02-18 21:50:00,
2013-02-18 15:55:00,71.7,65.6,29.84,SE,146,19.6,19.6,81,0.00,CLR,,0.00,WeatherDisplay:10.37,2013-02-18 21:55:00,
2013-02-18 16:00:00,71.8,66.0,29.84,SE,131,14.7,14.7,82,0.00,CLR,,0.00,WeatherDisplay:10.37,2013-02-18 22:00:00,
2013-02-18 16:05:00,71.8,65.3,29.85,South,173,19.6,19.6,80,0.00,CLR,,0.00,WeatherDisplay:10.37,2013-02-18 22:05:00,
2013-02-18 16:10:00,71.8,65.7,29.85,SSE,162,15.0,15.0,81,0.00,CLR,,0.00,WeatherDisplay:10.37,2013-02-18 22:10:00,
2013-02-18 16:15:00,71.8,65.7,29.85,SSE,148,18.4,18.4,81,0.00,CLR,,0.00,WeatherDisplay:10.37,2013-02-18 22:15:00,
2013-02-18 16:20:00,71.6,65.8,29.85,SSE,163,11.5,11.5,82,0.00,CLR,,0.00,WeatherDisplay:10.37,2013-02-18 22:20:00,
2013-02-18 16:25:00,71.7,65.6,29.85,SSW,196,18.4,18.4,81,0.00,CLR,,0.00,WeatherDisplay:10.37,2013-02-18 22:25:00,
2013-02-18 16:30:00,72.0,65.8,29.84,SE,131,11.6,11.6,81,0.00,CLR,,0.00,WeatherDisplay:10.37,2013-02-18 22:30:00,
2013-02-18 16:35:00,71.5,65.4,29.84,SSE,162,13.8,13.8,81,0.00,CLR,,0.00,WeatherDisplay:10.37,2013-02-18 22:35:00,
2013-02-18 16:40:00,71.2,65.4,29.84,SSE,148,18.4,18.4,82,0.00,CLR,,0.00,WeatherDisplay:10.37,2013-02-18 22:40:00,
2013-02-18 16:45:00,71.0,65.2,29.84,South,180,18.4,18.4,82,0.00,CLR,,0.00,WeatherDisplay:10.37,2013-02-18 22:45:00,
2013-02-18 16:50:00,71.0,65.2,29.84,SSE,165,18.4,18.4,82,0.00,CLR,,0.00,WeatherDisplay:10.37,2013-02-18 22:50:00,
2013-02-18 16:55:00,70.7,65.3,29.84,SE,139,16.1,16.1,83,0.00,CLR,,0.00,WeatherDisplay:10.37,2013-02-18 22:55:00,
2013-02-18 17:00:00,70.7,65.3,29.84,SSW,193,16.1,16.1,83,0.00,CLR,,0.00,WeatherDisplay:10.37,2013-02-18 23:00:00,
2013-02-18 17:05:00,70.9,65.5,29.84,SSE,160,13.8,13.8,83,0.00,CLR,,0.00,WeatherDisplay:10.37,2013-02-18 23:05:00,
2013-02-18 17:10:00,70.8,65.0,29.84,SE,134,17.3,17.3,82,0.00,CLR,,0.00,WeatherDisplay:10.37,2013-02-18 23:10:00,
2013-02-18 17:15:00,70.7,64.9,29.85,SE,127,18.4,18.4,82,0.00,CLR,,0.00,WeatherDisplay:10.37,2013-02-18 23:15:00,
2013-02-18 17:20:00,70.4,65.0,29.85,SE,124,17.3,17.3,83,0.00,CLR,,0.00,WeatherDisplay:10.37,2013-02-18 23:20:00,
2013-02-18 17:25:00,70.2,64.8,29.85,SE,134,13.8,13.8,83,0.00,CLR,,0.00,WeatherDisplay:10.37,2013-02-18 23:25:00,
2013-02-18 17:30:00,70.0,64.9,29.86,SSE,164,11.6,12.2,84,0.00,CLR,,0.00,WeatherDisplay:10.37,2013-02-18 23:30:00,
2013-02-18 17:35:00,69.8,64.7,29.85,SE,145,10.4,10.4,84,0.00,CLR,,0.00,WeatherDisplay:10.37,2013-02-18 23:35:00,
2013-02-18 17:40:00,69.5,64.8,29.86,SE,126,12.7,12.7,85,0.00,CLR,,0.00,WeatherDisplay:10.37,2013-02-18 23:40:00,
2013-02-18 17:45:00,69.2,64.5,29.86,SSE,157,12.7,12.7,85,0.00,CLR,,0.00,WeatherDisplay:10.37,2013-02-18 23:45:00,
2013-02-18 17:50:00,69.0,64.6,29.86,South,175,8.1,8.1,86,0.00,CLR,,0.00,WeatherDisplay:10.37,2013-02-18 23:50:00,
2013-02-18 17:55:00,68.7,64.7,29.86,SSW,192,18.4,18.4,87,0.00,CLR,,0.00,WeatherDisplay:10.37,2013-02-18 23:55:00,
2013-02-18 18:00:00,68.5,64.5,29.86,SE,143,12.7,12.7,87,0.00,CLR,,0.00,WeatherDisplay:10.37,2013-02-19 00:00:00,
2013-02-18 18:05:00,68.3,64.3,29.86,SE,140,10.5,10.5,87,0.00,CLR,,0.00,WeatherDisplay:10.37,2013-02-19 00:05:00,
2013-02-18 18:10:00,68.1,64.4,29.87,SE,143,11.5,11.5,88,0.00,CLR,,0.00,WeatherDisplay:10.37,2013-02-19 00:10:00,
2013-02-18 18:15:00,67.9,64.2,29.87,SSE,152,11.5,11.5,88,0.00,CLR,,0.00,WeatherDisplay:10.37,2013-02-19 00:15:00,
2013-02-18 18:20:00,67.7,64.0,29.87,SSE,158,5.8,6.0,88,0.00,CLR,,0.00,WeatherDisplay:10.37,2013-02-19 00:20:00,
2013-02-18 18:25:00,67.5,64.1,29.87,SSE,153,11.5,11.5,89,0.00,CLR,,0.00,WeatherDisplay:10.37,2013-02-19 00:25:00,
2013-02-18 18:30:00,67.5,64.1,29.87,South,176,6.3,6.3,89,0.00,CLR,,0.00,WeatherDisplay:10.37,2013-02-19 00:30:00,
2013-02-18 18:35:00,67.4,64.0,29.87,SSE,158,16.1,16.1,89,0.00,CLR,,0.00,WeatherDisplay:10.37,2013-02-19 00:35:00,
2013-02-18 18:40:00,67.4,64.0,29.88,South,180,13.8,13.8,89,0.00,CLR,,0.00,WeatherDisplay:10.37,2013-02-19 00:40:00,
2013-02-18 18:45:00,67.4,64.0,29.88,SSW,213,18.4,18.4,89,0.00,CLR,,0.00,WeatherDisplay:10.37,2013-02-19 00:45:00,
2013-02-18 18:50:00,67.5,64.1,29.88,SSW,195,6.9,6.9,89,0.00,CLR,,0.00,WeatherDisplay:10.37,2013-02-19 00:50:00,
2013-02-18 18:55:00,67.5,64.5,29.88,SSE,151,12.7,12.7,90,0.00,CLR,,0.00,WeatherDisplay:10.37,2013-02-19 00:55:00,
2013-02-18 19:00:00,67.6,64.6,29.88,SSW,193,16.1,16.1,90,0.00,CLR,,0.00,WeatherDisplay:10.37,2013-02-19 01:00:00,
2013-02-18 19:05:00,67.6,64.6,29.89,South,186,13.8,13.8,90,0.00,CLR,,0.00,WeatherDisplay:10.37,2013-02-19 01:05:00,
2013-02-18 19:10:00,67.6,64.6,29.89,South,186,13.8,13.8,90,0.00,CLR,,0.00,WeatherDisplay:10.37,2013-02-19 01:10:00,
2013-02-18 19:15:00,67.4,64.4,29.89,South,189,11.5,11.5,90,0.00,CLR,,0.00,WeatherDisplay:10.37,2013-02-19 01:15:00,
2013-02-18 19:21:00,67.5,64.5,29.90,ESE,122,13.8,13.8,90,0.00,CLR,,0.00,WeatherDisplay:10.37,2013-02-19 01:21:00,
2013-02-18 19:26:00,67.2,64.2,29.90,South,188,12.6,12.6,90,0.00,CLR,,0.00,WeatherDisplay:10.37,2013-02-19 01:26:00,
2013-02-18 19:31:00,66.9,64.2,29.90,South,191,8.1,8.1,91,0.00,CLR,,0.00,WeatherDisplay:10.37,2013-02-19 01:31:00,
2013-02-18 19:36:00,66.7,64.3,29.90,South,174,13.8,13.8,92,0.00,CLR,,0.00,WeatherDisplay:10.37,2013-02-19 01:36:00,
2013-02-18 19:41:00,66.7,64.3,29.90,South,184,17.3,17.3,92,0.00,CLR,,0.00,WeatherDisplay:10.37,2013-02-19 01:41:00,
2013-02-18 19:46:00,66.7,64.3,29.90,South,169,11.5,11.5,92,0.00,CLR,,0.00,WeatherDisplay:10.37,2013-02-19 01:46:00,
2013-02-18 19:51:00,66.7,64.6,29.91,South,182,13.8,13.8,93,0.00,CLR,,0.00,WeatherDisplay:10.37,2013-02-19 01:51:00,
2013-02-18 19:56:00,66.7,64.3,29.91,South,187,9.2,9.2,92,0.00,CLR,,0.00,WeatherDisplay:10.37,2013-02-19 01:56:00,
2013-02-18 20:01:00,66.8,64.4,29.91,SSW,192,10.4,10.4,92,0.00,CLR,,0.00,WeatherDisplay:10.37,2013-02-19 02:01:00,
2013-02-18 20:06:00,66.8,64.4,29.91,South,186,11.5,11.5,92,0.00,CLR,,0.00,WeatherDisplay:10.37,2013-02-19 02:06:00,
2013-02-18 20:11:00,66.8,64.4,29.92,South,183,17.3,17.3,92,0.00,CLR,,0.00,WeatherDisplay:10.37,2013-02-19 02:11:00,
2013-02-18 20:16:00,66.7,64.6,29.92,SSW,196,12.7,12.7,93,0.00,CLR,,0.00,WeatherDisplay:10.37,2013-02-19 02:16:00,
2013-02-18 20:21:00,66.6,64.5,29.92,South,186,10.4,10.4,93,0.00,CLR,,0.00,WeatherDisplay:10.37,2013-02-19 02:21:00,
2013-02-18 20:26:00,66.4,64.3,29.93,South,174,13.8,13.8,93,0.00,CLR,,0.00,WeatherDisplay:10.37,2013-02-19 02:26:00,
2013-02-18 20:31:00,66.3,64.2,29.93,South,170,10.4,10.4,93,0.00,CLR,,0.00,WeatherDisplay:10.37,2013-02-19 02:31:00,
2013-02-18 20:36:00,66.1,64.0,29.93,South,174,6.9,6.9,93,0.00,CLR,,0.00,WeatherDisplay:10.37,2013-02-19 02:36:00,
2013-02-18 20:41:00,66.1,64.3,29.93,South,181,9.4,9.4,94,0.00,CLR,,0.00,WeatherDisplay:10.37,2013-02-19 02:41:00,
2013-02-18 20:46:00,66.0,64.2,29.94,SSE,162,6.9,6.9,94,0.00,CLR,,0.00,WeatherDisplay:10.37,2013-02-19 02:46:00,
2013-02-18 20:51:00,66.0,64.2,29.94,South,185,8.1,8.1,94,0.00,CLR,,0.00,WeatherDisplay:10.37,2013-02-19 02:51:00,
2013-02-18 20:56:00,66.0,64.2,29.94,SSW,195,10.4,10.4,94,0.00,CLR,,0.00,WeatherDisplay:10.37,2013-02-19 02:56:00,
2013-02-18 21:01:00,66.0,64.2,29.94,SSW,195,9.2,9.2,94,0.00,CLR,,0.00,WeatherDisplay:10.37,2013-02-19 03:01:00,
2013-02-18 21:06:00,66.0,64.2,29.94,South,179,11.5,11.5,94,0.00,CLR,,0.00,WeatherDisplay:10.37,2013-02-19 03:06:00,
2013-02-18 21:12:00,66.0,64.2,29.94,South,179,9.2,9.2,94,0.00,CLR,,0.00,WeatherDisplay:10.37,2013-02-19 03:12:00,
2013-02-18 21:17:00,66.0,64.5,29.95,SSE,167,10.4,10.4,95,0.00,CLR,,0.00,WeatherDisplay:10.37,2013-02-19 03:17:00,
2013-02-18 21:22:00,66.0,64.2,29.95,South,186,5.8,5.8,94,0.00,CLR,,0.00,WeatherDisplay:10.37,2013-02-19 03:22:00,
2013-02-18 21:27:00,65.8,64.0,29.95,SSW,202,9.4,9.4,94,0.00,CLR,,0.00,WeatherDisplay:10.37,2013-02-19 03:27:00,
2013-02-18 21:32:00,65.7,64.2,29.95,South,184,13.8,13.8,95,0.00,CLR,,0.00,WeatherDisplay:10.37,2013-02-19 03:32:00,
2013-02-18 21:37:00,65.6,64.1,29.96,SSE,165,12.7,12.7,95,0.00,CLR,,0.00,WeatherDisplay:10.37,2013-02-19 03:37:00,
2013-02-18 21:42:00,65.6,64.1,29.96,South,179,11.5,11.5,95,0.00,CLR,,0.00,WeatherDisplay:10.37,2013-02-19 03:42:00,
2013-02-18 21:47:00,65.6,64.1,29.96,South,181,10.4,10.4,95,0.00,CLR,,0.00,WeatherDisplay:10.37,2013-02-19 03:47:00,
2013-02-18 21:52:00,65.5,64.0,29.96,SSW,200,6.9,6.9,95,0.00,CLR,,0.00,WeatherDisplay:10.37,2013-02-19 03:52:00,
2013-02-18 21:57:00,65.6,64.1,29.97,South,183,11.5,11.5,95,0.00,CLR,,0.00,WeatherDisplay:10.37,2013-02-19 03:57:00,
2013-02-18 22:02:00,65.5,64.0,29.97,South,176,6.9,6.9,95,0.00,CLR,,0.00,WeatherDisplay:10.37,2013-02-19 04:02:00,
2013-02-18 22:07:00,65.5,64.0,29.97,SSW,192,9.2,9.2,95,0.00,CLR,,0.00,WeatherDisplay:10.37,2013-02-19 04:07:00,
2013-02-18 22:12:00,65.5,64.0,29.97,SSW,200,5.8,5.8,95,0.00,CLR,,0.00,WeatherDisplay:10.37,2013-02-19 04:12:00,
2013-02-18 22:17:00,65.5,64.0,29.97,South,184,13.8,13.8,95,0.00,CLR,,0.00,WeatherDisplay:10.37,2013-02-19 04:17:00,
2013-02-18 22:22:00,65.5,64.0,29.97,SSW,203,6.9,6.9,95,0.00,CLR,,0.00,WeatherDisplay:10.37,2013-02-19 04:22:00,
2013-02-18 22:27:00,65.4,63.9,29.97,South,191,10.4,10.4,95,0.00,CLR,,0.00,WeatherDisplay:10.37,2013-02-19 04:27:00,
2013-02-18 22:32:00,65.4,64.2,29.97,South,181,10.4,10.4,96,0.00,CLR,,0.00,WeatherDisplay:10.37,2013-02-19 04:32:00,
2013-02-18 22:38:00,65.3,64.1,29.97,South,191,16.1,16.1,96,0.00,CLR,,0.00,WeatherDisplay:10.37,2013-02-19 04:38:00,
2013-02-18 22:43:00,65.2,64.0,29.97,SSW,211,13.8,13.8,96,0.00,CLR,,0.00,WeatherDisplay:10.37,2013-02-19 04:43:00,
2013-02-18 22:48:00,65.1,63.9,29.98,South,184,11.5,11.5,96,0.00,CLR,,0.00,WeatherDisplay:10.37,2013-02-19 04:48:00,
2013-02-18 22:53:00,65.0,63.8,29.98,SSW,195,10.4,10.4,96,0.00,CLR,,0.00,WeatherDisplay:10.37,2013-02-19 04:53:00,
2013-02-18 22:58:00,65.0,63.8,29.98,SSE,160,11.5,11.5,96,0.00,CLR,,0.00,WeatherDisplay:10.37,2013-02-19 04:58:00,
2013-02-18 23:00:00,64.9,63.7,29.98,South,182,9.2,9.2,96,0.00,CLR,,0.00,WeatherDisplay:10.37,2013-02-19 05:00:00,
2013-02-18 23:05:00,65.0,64.1,29.98,SSE,168,12.7,12.7,97,0.00,CLR,,0.00,WeatherDisplay:10.37,2013-02-19 05:05:00,
2013-02-18 23:10:00,65.0,63.8,29.98,South,172,12.7,12.7,96,0.00,CLR,,0.00,WeatherDisplay:10.37,2013-02-19 05:10:00,
2013-02-18 23:15:00,65.0,63.8,29.98,SSW,207,11.5,11.5,96,0.00,CLR,,0.00,WeatherDisplay:10.37,2013-02-19 05:15:00,
2013-02-18 23:20:00,65.0,63.8,29.98,SSW,209,10.4,10.4,96,0.00,CLR,,0.00,WeatherDisplay:10.37,2013-02-19 05:20:00,
2013-02-18 23:25:00,65.0,63.8,29.98,SSW,206,6.9,6.9,96,0.00,CLR,,0.00,WeatherDisplay:10.37,2013-02-19 05:25:00,
2013-02-18 23:30:00,64.9,63.7,29.98,SSW,200,11.5,11.5,96,0.00,CLR,,0.00,WeatherDisplay:10.37,2013-02-19 05:30:00,
2013-02-18 23:35:00,64.9,63.7,29.98,South,179,9.2,9.2,96,0.00,CLR,,0.00,WeatherDisplay:10.37,2013-02-19 05:35:00,
2013-02-18 23:40:00,64.8,63.9,29.98,SSE,168,7.4,7.4,97,0.00,CLR,,0.00,WeatherDisplay:10.37,2013-02-19 05:40:00,
2013-02-18 23:45:00,64.8,63.9,29.98,South,181,11.5,11.5,97,0.00,CLR,,0.00,WeatherDisplay:10.37,2013-02-19 05:45:00,
2013-02-18 23:50:00,64.8,63.9,29.97,SSW,200,6.9,6.9,97,0.00,CLR,,0.00,WeatherDisplay:10.37,2013-02-19 05:50:00,
2013-02-18 23:55:00,64.7,63.8,29.97,SSW,195,6.9,6.9,97,0.00,CLR,,0.00,WeatherDisplay:10.37,2013-02-19 05:55:00,